Regional Weather Roundup
Issued by NWS

Home | Current Version | Previous Version | Graphics & Text | Print | Product List | Glossary On
Versions: 1 2 3 4 5 6 7 8 9 10 11 12 13 14 15 16 17 18 19 20 21 22 23 24 25 26 27 28 29 30 31 32 33 34 35 36 37 38 39 40 41 42 43 44 45 46 47 48 49 50
000
ASUS43 KOAX 241910
RWRNE

WEATHER ROUNDUP FOR NEBRASKA
NATIONAL WEATHER SERVICE OMAHA NE
200 PM CDT TUE APR 24 2018

NOTES: SATELLITE DATA IS BEING USED TO AUGMENT CLOUD COVER ABOVE
       12000 FEET.
       "FAIR" INDICATES FEW OR NO CLOUDS BELOW 12,000 FEET WITH NO
       SIGNIFICANT WEATHER AND/OR OBSTRUCTIONS TO VISIBILITY.


NEZ001>004-019>022-054>056-242000-
NEBRASKA PANHANDLE

CITY           SKY/WX    TMP DP  RH WIND       PRES   REMARKS
SCOTTSBLUFF    CLOUDY    43  34  70 N10       30.44F
ALLIANCE       CLOUDY    36  31  82 N20G29    30.42S WCI  25
CHADRON        CLOUDY    40  31  70 N15       30.47F WCI  32
GORDON         CLOUDY    37  33  86 N23       30.42S WCI  25
KIMBALL        CLOUDY    37  31  80 N16G25    30.41F WCI  27
SIDNEY         CLOUDY    39  32  76 N23G29    30.40S WCI  28
$$

NEZ057>060-069>072-079>082-242000-
SOUTHWEST NEBRASKA

CITY           SKY/WX    TMP DP  RH WIND       PRES   REMARKS
NORTH PLATTE   CLOUDY    42  36  79 N17G29    30.34S
IMPERIAL       CLOUDY    42  37  82 N23G32    30.36S
LEXINGTON      CLOUDY    45  40  84 NW17      30.31S
MCCOOK         CLOUDY    43  40  89 NW21G28   30.33S
OGALLALA       CLOUDY    43  35  73 N21G28    30.37S
$$

NEZ005>010-023>029-035>040-094-242000-
NORTH CENTRAL NEBRASKA

CITY           SKY/WX    TMP DP  RH WIND       PRES   REMARKS
VALENTINE      CLOUDY    40  36  86 N20G30    30.36R WCI  30
AINSWORTH      LGT RAIN  39  39 100 N25G32    30.31S WCI  28
BROKEN BOW     CLOUDY    42  38  85 NW23G32   30.27F
O`NEILL        CLOUDY    51  48  90 N9        30.23S
ORD            LGT RAIN  44  41  89 NW21G30   30.24S FOG
THEDFORD       CLOUDY    40  35  82 N21G33    30.33S WCI  31
$$

NEZ041-046>049-061>064-073>077-083>087-242000-
SOUTH CENTRAL NEBRASKA

CITY           SKY/WX    TMP DP  RH WIND       PRES   REMARKS
GRAND ISLAND   LGT RAIN  45  42  89 NW15G25   30.27S
AURORA         DRIZZLE   47  44  90 NW17      30.25S
HASTINGS       RAIN      44  43  96 NW16      30.27S
HEBRON         CLOUDY    54  44  68 NW20G25   30.22R
HOLDREGE       LGT RAIN  42  42  97 NW13      30.28S
KEARNEY        LGT RAIN  43  41  93 NW14      30.28F
YORK           LGT RAIN  48  48 100 NW20      30.22S
$$

NEZ011>018-030>034-042>045-242000-
NORTHEAST NEBRASKA

CITY           SKY/WX    TMP DP  RH WIND       PRES   REMARKS
NORFOLK        LGT RAIN  49  47  93 NW12      30.19R
ALBION         RAIN      47  46  93 NW10      30.22F
BLAIR          SUNNY     73  37  27 W10       30.11F
COLUMBUS       LGT RAIN  53  46  77 NW15      30.22R
FREMONT        CLOUDY    63  45  51 NW25      30.17R
TEKAMAH        PTSUNNY   71  36  27 W13G23    30.11F
WAYNE          DRIZZLE   51  50  97 NW9       30.20R
$$

NEZ050>053-065>068-078-088>093-242000-
SOUTHEAST NEBRASKA

CITY           SKY/WX    TMP DP  RH WIND       PRES   REMARKS
LINCOLN        CLOUDY    64  42  44 NW23G32   30.17R
OMAHA EPPLEY   CLOUDY    75  36  24 SW8       30.10F
BEATRICE       CLOUDY    69  45  41 NW21G29   30.14R
FALLS CITY     SUNNY     74  31  20 MISG      30.09F
NEBRASKA CITY  CLOUDY    74  35  24 W8        30.10F
PLATTSMOUTH    MOSUNNY   74  32  21 NW9G17    30.11S
$$

NEZ044-045-051>053-067-242000-
OMAHA AREA

CITY           SKY/WX    TMP DP  RH WIND       PRES   REMARKS
OMAHA EPPLEY   CLOUDY    75  36  24 SW8       30.10F
BLAIR          SUNNY     73  37  27 W10       30.11F
FREMONT        CLOUDY    63  45  51 NW25      30.17R
MILLARD        MOSUNNY   74  37  26 NW6       30.11F
OFFUTT AFB       N/A     74  36  24 W7        30.09F
PLATTSMOUTH    MOSUNNY   74  32  21 NW9G17    30.11S
WAHOO          CLOUDY    63  40  43 NW25      30.16R
$$




USA.gov is the U.S. government's official web portal to all federal, state and local government web resources and services.